User: anonymous   Login
Location: Kitchener
(43.2612°N, 80.5078°W)
Time: 07:53:50
(UTC+02:00)
Language:

Iridium 57 - Orbit

View from above orbital plane
View from above orbital plane
View from above satellite
View from above satellite

Ground track
Ground track

The orbit data is extracted from the following two-line orbital elements,

1 25273U 98019B   14295.14851386  .00000554  00000-0  19067-3 0  9465
2 25273 086.3916 332.3522 0002472 109.0580 251.0884 14.34222631867177
Epoch (UTC): 22 October 2014 03:33:51
Eccentricity: 0.0002472
inclination: 86.3916°
perigee height: 776 km
apogee height: 779 km
right ascension of ascending node: 332.3522°
argument of perigee: 109.0580°
revolutions per day: 14.34222631
mean anomaly at epoch: 251.0884°
orbit number at epoch: 86717

The dashed part of the orbit path shows where the satellite is in the earth's shadow,  

DLR